Time,TemperatureF,DewpointF,PressureIn,WindDirection,WindDirectionDegrees,WindSpeedMPH,WindSpeedGustMPH,Humidity,HourlyPrecipIn,Conditions,Clouds,dailyrainin,SoftwareType,DateUTC
2013-01-12 00:16:00,43.0,40.3,30.03,South,191,2.0,6.0,90,0.00,,,0.00,VWS V14.01,2013-01-12 05:16:00,
2013-01-12 00:31:00,42.9,40.2,30.02,South,188,0.0,6.0,90,0.00,,,0.00,VWS V14.01,2013-01-12 05:31:00,
2013-01-12 00:46:00,42.8,40.4,30.03,SSW,196,2.0,5.0,91,0.00,,,0.00,VWS V14.01,2013-01-12 05:46:00,
2013-01-12 01:01:00,42.7,40.3,30.03,SSW,202,0.0,5.0,91,0.00,,,0.00,VWS V14.01,2013-01-12 06:01:00,
2013-01-12 01:16:00,42.4,40.0,30.03,SSW,194,0.0,5.0,91,0.00,,,0.00,VWS V14.01,2013-01-12 06:16:00,
2013-01-12 01:31:00,42.2,40.0,30.03,SSW,213,3.0,6.0,92,0.00,,,0.00,VWS V14.01,2013-01-12 06:31:00,
2013-01-12 01:46:00,42.1,40.0,30.04,South,188,2.0,5.0,92,0.00,,,0.00,VWS V14.01,2013-01-12 06:46:00,
2013-01-12 02:01:00,42.0,39.8,30.05,South,189,2.0,5.0,92,0.00,,,0.00,VWS V14.01,2013-01-12 07:01:00,
2013-01-12 02:16:00,41.8,39.7,30.06,SSW,202,1.0,5.0,92,0.00,,,0.00,VWS V14.01,2013-01-12 07:16:00,
2013-01-12 02:31:00,42.0,39.8,30.06,South,184,1.0,4.0,92,0.00,,,0.00,VWS V14.01,2013-01-12 07:31:00,
2013-01-12 02:46:00,42.0,40.1,30.07,SSW,205,2.0,4.0,93,0.00,,,0.00,VWS V14.01,2013-01-12 07:46:00,
2013-01-12 03:01:00,42.0,40.1,30.07,SSW,192,2.0,5.0,93,0.00,,,0.00,VWS V14.01,2013-01-12 08:01:00,
2013-01-12 03:16:00,42.2,40.3,30.06,South,191,0.0,6.0,93,0.00,,,0.00,VWS V14.01,2013-01-12 08:16:00,
2013-01-12 03:31:00,42.2,40.3,30.05,South,177,2.0,4.0,93,0.00,,,0.00,VWS V14.01,2013-01-12 08:31:00,
2013-01-12 03:46:00,42.3,40.4,30.05,SSW,202,1.0,5.0,93,0.00,,,0.00,VWS V14.01,2013-01-12 08:46:00,
2013-01-12 04:01:00,42.5,40.9,30.05,South,180,2.0,6.0,94,0.00,,,0.00,VWS V14.01,2013-01-12 09:01:00,
2013-01-12 04:16:00,42.6,40.7,30.05,South,184,3.0,6.0,93,0.00,,,0.00,VWS V14.01,2013-01-12 09:16:00,
2013-01-12 04:31:00,42.7,40.8,30.04,SSW,195,4.0,7.0,93,0.00,,,0.00,VWS V14.01,2013-01-12 09:31:00,
2013-01-12 04:46:00,42.8,40.9,30.03,South,182,1.0,6.0,93,0.00,,,0.00,VWS V14.01,2013-01-12 09:46:00,
2013-01-12 05:01:00,42.9,41.3,30.04,South,169,0.0,7.0,94,0.00,,,0.00,VWS V14.01,2013-01-12 10:01:00,
2013-01-12 05:16:00,43.2,41.6,30.04,South,182,2.0,6.0,94,0.00,,,0.00,VWS V14.01,2013-01-12 10:16:00,
2013-01-12 05:31:00,43.1,41.2,30.05,South,183,2.0,5.0,93,0.00,,,0.00,VWS V14.01,2013-01-12 10:31:00,
2013-01-12 05:46:00,43.4,41.5,30.05,SSW,192,2.0,7.0,93,0.00,,,0.00,VWS V14.01,2013-01-12 10:46:00,
2013-01-12 06:01:00,43.6,41.7,30.06,South,189,2.0,9.0,93,0.00,,,0.00,VWS V14.01,2013-01-12 11:01:00,
2013-01-12 06:16:00,43.8,41.9,30.06,SSW,202,2.0,7.0,93,0.00,,,0.00,VWS V14.01,2013-01-12 11:16:00,
2013-01-12 06:31:00,43.9,42.0,30.06,South,188,2.0,8.0,93,0.00,,,0.00,VWS V14.01,2013-01-12 11:31:00,
2013-01-12 06:46:00,43.8,41.9,30.06,South,188,4.0,7.0,93,0.00,,,0.00,VWS V14.01,2013-01-12 11:46:00,
2013-01-12 07:01:00,43.7,41.8,30.07,South,186,3.0,7.0,93,0.00,,,0.00,VWS V14.01,2013-01-12 12:01:00,
2013-01-12 07:16:00,43.8,41.9,30.06,South,178,0.0,7.0,93,0.00,,,0.00,VWS V14.01,2013-01-12 12:16:00,
2013-01-12 07:31:00,43.9,42.3,30.05,South,190,4.0,7.0,94,0.00,,,0.00,VWS V14.01,2013-01-12 12:31:00,
2013-01-12 07:46:00,44.1,42.5,30.06,SSW,192,3.0,9.0,94,0.00,,,0.00,VWS V14.01,2013-01-12 12:46:00,
2013-01-12 08:01:00,44.3,42.4,30.06,South,190,3.0,8.0,93,0.00,,,0.00,VWS V14.01,2013-01-12 13:01:00,
2013-01-12 08:16:00,44.3,42.4,30.06,SSW,192,3.0,7.0,93,0.00,,,0.00,VWS V14.01,2013-01-12 13:16:00,
2013-01-12 08:31:00,44.6,43.0,30.06,SSW,195,3.0,9.0,94,0.00,,,0.00,VWS V14.01,2013-01-12 13:31:00,
2013-01-12 08:46:00,45.0,43.1,30.05,SSW,197,4.0,6.0,93,0.00,,,0.00,VWS V14.01,2013-01-12 13:46:00,
2013-01-12 09:01:00,45.4,43.5,30.05,SW,217,7.0,9.0,93,0.00,,,0.00,VWS V14.01,2013-01-12 14:01:00,
2013-01-12 09:16:00,45.9,43.7,30.06,South,183,4.0,9.0,92,0.00,,,0.00,VWS V14.01,2013-01-12 14:16:00,
2013-01-12 09:31:00,46.6,44.1,30.05,SSW,198,2.0,9.0,91,0.00,,,0.00,VWS V14.01,2013-01-12 14:31:00,
2013-01-12 09:46:00,47.0,44.5,30.05,South,182,3.0,7.0,91,0.00,,,0.00,VWS V14.01,2013-01-12 14:46:00,
2013-01-12 10:01:00,48.3,45.5,30.05,SSW,193,6.0,10.0,90,0.00,,,0.00,VWS V14.01,2013-01-12 15:01:00,
2013-01-12 10:16:00,49.1,45.7,30.05,South,186,1.0,9.0,88,0.00,,,0.00,VWS V14.01,2013-01-12 15:16:00,
2013-01-12 10:31:00,49.3,45.9,30.06,South,182,1.0,7.0,88,0.00,,,0.00,VWS V14.01,2013-01-12 15:31:00,
2013-01-12 10:46:00,49.5,46.1,30.06,South,190,4.0,6.0,88,0.00,,,0.00,VWS V14.01,2013-01-12 15:46:00,
2013-01-12 11:01:00,49.8,46.4,30.05,SSW,199,2.0,8.0,88,0.00,,,0.00,VWS V14.01,2013-01-12 16:01:00,
2013-01-12 11:16:00,50.4,46.7,30.04,South,182,1.0,9.0,87,0.00,,,0.00,VWS V14.01,2013-01-12 16:16:00,
2013-01-12 11:31:00,50.8,47.1,30.03,SSW,192,4.0,9.0,87,0.00,,,0.00,VWS V14.01,2013-01-12 16:31:00,
2013-01-12 11:46:00,51.2,47.5,30.03,South,184,0.0,9.0,87,0.00,,,0.00,VWS V14.01,2013-01-12 16:46:00,
2013-01-12 12:01:00,51.7,47.7,30.02,South,188,2.0,6.0,86,0.00,,,0.00,VWS V14.01,2013-01-12 17:01:00,
2013-01-12 12:16:00,52.1,48.0,30.03,SSW,196,3.0,7.0,86,0.00,,,0.00,VWS V14.01,2013-01-12 17:16:00,
2013-01-12 12:31:00,52.4,48.3,30.03,South,190,4.0,8.0,86,0.00,,,0.00,VWS V14.01,2013-01-12 17:31:00,
2013-01-12 12:46:00,52.6,48.2,30.03,SSW,212,2.0,7.0,85,0.00,,,0.00,VWS V14.01,2013-01-12 17:46:00,
2013-01-12 13:01:00,53.1,48.7,30.02,South,184,0.0,6.0,85,0.00,,,0.00,VWS V14.01,2013-01-12 18:01:00,
2013-01-12 13:16:00,53.8,49.1,30.02,South,188,3.0,7.0,84,0.00,,,0.00,VWS V14.01,2013-01-12 18:16:00,
2013-01-12 13:31:00,53.9,49.2,30.03,SW,226,0.0,6.0,84,0.00,,,0.00,VWS V14.01,2013-01-12 18:31:00,
2013-01-12 13:46:00,54.7,50.0,30.02,SSW,196,1.0,6.0,84,0.00,,,0.00,VWS V14.01,2013-01-12 18:46:00,
2013-01-12 14:01:00,55.5,50.1,30.02,SSW,192,3.0,7.0,82,0.00,,,0.00,VWS V14.01,2013-01-12 19:01:00,
2013-01-12 14:16:00,55.9,50.5,30.01,South,184,3.0,7.0,82,0.00,,,0.00,VWS V14.01,2013-01-12 19:16:00,
2013-01-12 14:46:00,56.7,50.6,30.02,SSW,209,3.0,8.0,80,0.00,,,0.00,VWS V14.01,2013-01-12 19:46:00,
2013-01-12 15:01:00,56.7,50.6,30.02,SSW,211,2.0,8.0,80,0.00,,,0.00,VWS V14.01,2013-01-12 20:01:00,
2013-01-12 15:16:00,56.5,50.4,30.02,SW,220,4.0,7.0,80,0.00,,,0.00,VWS V14.01,2013-01-12 20:16:00,
2013-01-12 15:31:00,56.5,50.4,30.02,SSW,196,0.0,8.0,80,0.00,,,0.00,VWS V14.01,2013-01-12 20:31:00,
2013-01-12 15:46:00,56.2,50.1,30.03,South,187,5.0,7.0,80,0.00,,,0.00,VWS V14.01,2013-01-12 20:46:00,
2013-01-12 16:01:00,55.8,50.1,30.03,SSW,192,3.0,6.0,81,0.00,,,0.00,VWS V14.01,2013-01-12 21:01:00,
2013-01-12 16:16:00,55.4,50.0,30.04,SSW,202,0.0,8.0,82,0.00,,,0.00,VWS V14.01,2013-01-12 21:16:00,
2013-01-12 16:31:00,54.8,49.4,30.04,SSW,207,0.0,5.0,82,0.00,,,0.00,VWS V14.01,2013-01-12 21:31:00,
2013-01-12 16:46:00,54.5,49.1,30.04,SSW,209,3.0,5.0,82,0.00,,,0.00,VWS V14.01,2013-01-12 21:46:00,
2013-01-12 17:01:00,53.9,48.9,30.03,South,190,1.0,6.0,83,0.00,,,0.00,VWS V14.01,2013-01-12 22:01:00,
2013-01-12 17:16:00,53.8,48.8,30.03,SSW,213,3.0,8.0,83,0.00,,,0.00,VWS V14.01,2013-01-12 22:16:00,
2013-01-12 17:31:00,53.7,48.3,30.03,SSW,209,6.0,9.0,82,0.00,,,0.00,VWS V14.01,2013-01-12 22:31:00,
2013-01-12 17:46:00,53.4,48.4,30.04,SSW,198,5.0,9.0,83,0.00,,,0.00,VWS V14.01,2013-01-12 22:46:00,
2013-01-12 18:01:00,52.8,47.8,30.04,SSW,211,4.0,9.0,83,0.00,,,0.00,VWS V14.01,2013-01-12 23:01:00,
2013-01-12 18:16:00,52.2,47.5,30.04,SSW,210,5.0,7.0,84,0.00,,,0.00,VWS V14.01,2013-01-12 23:16:00,
2013-01-12 18:31:00,52.0,47.6,30.05,SSW,206,3.0,7.0,85,0.00,,,0.00,VWS V14.01,2013-01-12 23:31:00,
2013-01-12 18:46:00,51.6,47.6,30.05,SSW,208,3.0,7.0,86,0.00,,,0.00,VWS V14.01,2013-01-12 23:46:00,
2013-01-12 19:01:00,51.4,47.4,30.05,SSW,207,3.0,10.0,86,0.00,,,0.00,VWS V14.01,2013-01-13 00:01:00,
2013-01-12 19:16:00,51.2,47.2,30.06,SW,214,3.0,7.0,86,0.00,,,0.00,VWS V14.01,2013-01-13 00:16:00,
2013-01-12 19:31:00,50.7,46.7,30.05,SSW,194,0.0,5.0,86,0.00,,,0.00,VWS V14.01,2013-01-13 00:31:00,
2013-01-12 19:46:00,50.1,46.4,30.05,SSW,209,1.0,5.0,87,0.00,,,0.00,VWS V14.01,2013-01-13 00:46:00,
2013-01-12 20:01:00,49.9,46.2,30.05,South,189,2.0,5.0,87,0.00,,,0.00,VWS V14.01,2013-01-13 01:01:00,
2013-01-12 20:16:00,50.0,46.6,30.06,SSW,212,4.0,7.0,88,0.00,,,0.00,VWS V14.01,2013-01-13 01:16:00,
2013-01-12 20:31:00,50.2,46.8,30.05,SSW,192,2.0,7.0,88,0.00,,,0.00,VWS V14.01,2013-01-13 01:31:00,
2013-01-12 20:46:00,50.4,46.7,30.05,SSW,196,3.0,8.0,87,0.00,,,0.00,VWS V14.01,2013-01-13 01:46:00,
2013-01-12 21:01:00,50.4,47.0,30.06,SSW,199,3.0,6.0,88,0.00,,,0.00,VWS V14.01,2013-01-13 02:01:00,
2013-01-12 21:16:00,50.1,46.7,30.05,SW,232,2.0,6.0,88,0.00,,,0.00,VWS V14.01,2013-01-13 02:16:00,
2013-01-12 21:31:00,49.6,46.2,30.05,SSW,202,2.0,7.0,88,0.00,,,0.00,VWS V14.01,2013-01-13 02:31:00,
2013-01-12 21:46:00,49.5,46.7,30.05,South,191,2.0,3.0,90,0.00,,,0.00,VWS V14.01,2013-01-13 02:46:00,
2013-01-12 22:01:00,49.7,46.9,30.03,South,174,1.0,5.0,90,0.00,,,0.00,VWS V14.01,2013-01-13 03:01:00,
2013-01-12 22:16:00,50.2,47.1,30.03,South,180,2.0,7.0,89,0.00,,,0.00,VWS V14.01,2013-01-13 03:16:00,
2013-01-12 22:31:00,50.3,47.2,30.05,SSW,196,3.0,9.0,89,0.00,,,0.00,VWS V14.01,2013-01-13 03:31:00,
2013-01-12 22:46:00,50.4,47.3,30.05,South,188,2.0,7.0,89,0.00,,,0.00,VWS V14.01,2013-01-13 03:46:00,
2013-01-12 23:01:00,50.4,47.3,30.03,SSW,199,1.0,7.0,89,0.00,,,0.00,VWS V14.01,2013-01-13 04:01:00,
2013-01-12 23:16:00,50.3,47.5,30.03,South,180,2.0,5.0,90,0.00,,,0.00,VWS V14.01,2013-01-13 04:16:00,
2013-01-12 23:31:00,50.6,47.8,30.03,South,186,3.0,7.0,90,0.00,,,0.00,VWS V14.01,2013-01-13 04:31:00,
2013-01-12 23:46:00,50.9,48.1,30.03,South,183,3.0,9.0,90,0.00,,,0.00,VWS V14.01,2013-01-13 04:46:00,